East Taunton, MA

8:32 PM EDT on August 25, 2016 (GMT -0400)
Taunton Municipal

Weather History for KTAN - June, 2014

Change the Weather History Date:

Tuesday, June 10, 2014

  Actual Average Record
Temperature  
Mean Temperature 68 °F -  
Max Temperature 77 °F 76 °F 99 °F (2008)
Min Temperature 61 °F 52 °F 37 °F (1957)
Cooling Degree Days 4    
Growing Degree Days 18 (Base 50)    
Moisture  
Dew Point 62 °F    
Average Humidity 83    
Maximum Humidity 90    
Minimum Humidity 71    
Precipitation  
Precipitation 0.04 in - - ()
Sea Level Pressure  
Sea Level Pressure 29.99 in    
Wind  
Wind Speed 4 mph (SSE)    
Max Wind Speed 12 mph    
Max Gust Speed 17 mph    
Visibility 10 miles    
Events Rain    
Averages and records for this station are not official NWS values.
T = Trace of Precipitation, MM = Missing Value Source: NWS Daily Summary

Daily Weather History Graph

Daily Weather History Graph

Search for Another Location

Airport or City:

Trip Planner

Search our weather history database for the weather conditions in past years. The results will help you decide how hot, cold, wet, or windy it might be!

Date:

Astronomy

Jun. 10, 2014 Rise Set
Actual Time 5:08 AM EDT 8:18 PM EDT
Civil Twilight 4:34 AM EDT 8:52 PM EDT
Nautical Twilight 3:50 AM EDT 9:36 PM EDT
Astronomical Twilight 2:58 AM EDT 10:29 PM EDT
Moon 5:38 PM EDT (6/10) 3:14 AM EDT (6/10)
Length of Visible Light 16h 18m
Length of Day
15h 09m
Waxing Gibbous, 92% of the Moon is Illuminated
Jun 10
Waxing Gibbous
Jun 13
Full
Jun 19
Last Quarter
Jun 27
New
Jul 5
First Quarter

Hourly Weather History & Observations

Time (EDT) Temp. Dew Point Humidity Pressure Visibility Wind Dir Wind Speed Gust Speed Precip Events Conditions
12:40 AM 66.0 °F 60.1 °F 81% 29.98 in 10.0 mi Calm Calm - N/A   Overcast
12:52 AM 66.0 °F 60.1 °F 81% 29.98 in 10.0 mi South 3.5 mph - 0.00 in   Overcast
1:52 AM 66.0 °F 60.1 °F 81% 29.97 in 10.0 mi Variable 3.5 mph - N/A   Overcast
2:07 AM 66.0 °F 60.1 °F 81% 29.97 in 10.0 mi Calm Calm - N/A   Overcast
2:34 AM 66.0 °F 60.1 °F 81% 29.96 in 10.0 mi SE 3.5 mph - N/A   Overcast
2:52 AM 64.9 °F 60.1 °F 84% 29.96 in 10.0 mi SSE 4.6 mph - N/A   Overcast
3:52 AM 66.0 °F 60.1 °F 81% 29.96 in 10.0 mi SSE 3.5 mph - N/A   Overcast
4:06 AM 66.0 °F 61.0 °F 84% 29.96 in 10.0 mi SE 4.6 mph - N/A   Overcast
4:52 AM 64.9 °F 62.1 °F 90% 29.96 in 10.0 mi SSE 3.5 mph - N/A   Mostly Cloudy
5:36 AM 66.0 °F 62.1 °F 87% 29.97 in 10.0 mi Calm Calm - N/A   Overcast
5:52 AM 64.9 °F 62.1 °F 90% 29.96 in 10.0 mi SE 3.5 mph - N/A   Overcast
6:04 AM 66.0 °F 62.1 °F 87% 29.96 in 10.0 mi Calm Calm - N/A   Overcast
6:52 AM 66.9 °F 63.0 °F 87% 29.96 in 10.0 mi Calm Calm - 0.03 in   Overcast
6:59 AM 66.9 °F 64.0 °F 90% 29.96 in 8.0 mi Calm Calm - 0.00 in Rain Light Rain
8:52 AM 69.1 °F 66.0 °F 90% 29.96 in 10.0 mi SSE 4.6 mph - 0.01 in   Overcast
9:14 AM 70.0 °F 66.0 °F 87% 29.96 in 10.0 mi South 4.6 mph - N/A   Overcast
10:18 AM 70.0 °F 66.0 °F 87% 29.96 in 4.0 mi SSW 6.9 mph - N/A   Overcast
10:30 AM 70.0 °F 66.0 °F 87% 29.96 in 6.0 mi SSW 11.5 mph - N/A   Overcast
11:20 AM 73.0 °F 66.0 °F 79% 29.95 in 10.0 mi SSW 9.2 mph - N/A   Overcast
11:52 AM 73.0 °F 66.0 °F 79% 29.94 in 10.0 mi SW 6.9 mph 17.3 mph N/A   Overcast
12:52 PM 72.0 °F 66.0 °F 81% 29.95 in 10.0 mi South 6.9 mph - N/A   Overcast
1:14 PM 71.1 °F 66.0 °F 84% 29.96 in 10.0 mi SSW 8.1 mph - N/A   Overcast
1:52 PM 71.1 °F 66.0 °F 84% 29.96 in 10.0 mi SSW 8.1 mph - N/A   Overcast
2:52 PM 71.1 °F 66.0 °F 84% 29.96 in 10.0 mi SW 5.8 mph - N/A   Overcast
5:52 PM 75.9 °F 66.0 °F 71% 29.95 in 10.0 mi SW 4.6 mph - N/A   Scattered Clouds
6:36 PM 73.9 °F 66.0 °F 76% 29.98 in 10.0 mi North 11.5 mph 17.3 mph N/A   Mostly Cloudy
7:52 PM 66.0 °F 61.0 °F 84% 30.02 in 10.0 mi Variable 6.9 mph - 0.00 in   Overcast
8:10 PM 66.0 °F 61.0 °F 84% 30.03 in 10.0 mi Variable 5.8 mph - N/A   Overcast
8:52 PM 64.9 °F 60.1 °F 84% 30.05 in 10.0 mi NE 8.1 mph - N/A   Overcast
9:30 PM 64.0 °F 57.9 °F 80% 30.07 in 10.0 mi NE 9.2 mph - N/A   Overcast
9:49 PM 64.4 °F 57.2 °F 77% 30.07 in 10.0 mi North - - N/A   Overcast
9:52 PM 63.0 °F 57.0 °F 81% 30.07 in 10.0 mi ENE 4.6 mph - N/A   Overcast
10:37 PM 62.1 °F 55.9 °F 80% 30.08 in 10.0 mi NE 4.6 mph - N/A   Mostly Cloudy
10:52 PM 62.1 °F 55.9 °F 80% 30.08 in 10.0 mi ENE 6.9 mph - N/A   Mostly Cloudy
11:52 PM 61.0 °F 55.9 °F 83% 30.09 in 10.0 mi Variable 4.6 mph - N/A   Scattered Clouds